Regional Weather Roundup
Issued by NWS

Home | Current Version | Previous Version | Graphics & Text | Print | Product List | Glossary On
Versions: 1 2 3 4 5 6 7 8 9 10 11 12 13 14 15 16 17 18 19 20 21 22 23 24 25 26 27 28 29 30 31 32 33 34 35 36 37 38 39 40 41 42 43 44 45 46 47 48 49 50
000
ASUS43 KMPX 231510
RWRMN
WEATHER ROUNDUP FOR MINNESOTA
NATIONAL WEATHER SERVICE TWIN CITIES/CHANHASSEN MN
1000 AM CDT THU OCT 23 2014


NOTE: "FAIR" INDICATES FEW OR NO CLOUDS BELOW 12,000 FEET WITH NO
SIGNIFICANT WEATHER AND/OR OBSTRUCTIONS TO VISIBILITY. N/A MEANS
CURRENT SKY AND/OR WEATHER CONDITIONS ARE NOT AVAILABLE.

MNZ060>063-068>070-231600-
   Twin Cities Metro

CITY           SKY/WX    TMP DP  RH WIND       PRES   REMARKS
TWIN CITIES    PTSUNNY   54  51  90 S5        30.00S
ST PAUL        CLOUDY    53  51  93 SE6       30.01S
CRYSTAL        CLOUDY    56  52  86 SW3       29.99S
BLAINE         CLOUDY    55  55 100 SW5       29.99S
LAKEVILLE      CLOUDY    52  52 100 CALM      30.00F
EDEN PRAIRIE   PTSUNNY   56  52  86 SW5       29.99S
SOUTH ST PAUL  CLOUDY    53  50  90 S5        30.00S
LAKE ELMO      CLOUDY    52  52 100 S5        30.02S FOG
$$
MNZ001>005-007-008-013>017-022>024-027-028-231600-
   Northwest Minnesota

CITY           SKY/WX    TMP DP  RH WIND       PRES   REMARKS
BEMIDJI        MOSUNNY   50  47  90 S9        29.91S
HALLOCK        SUNNY     48  45  87 S9        29.83S
ROSEAU         SUNNY     52  46  82 S12       29.84S
WARROAD        MOSUNNY   52  46  82 S9        29.83F
THIEF RVR FALL SUNNY     48  43  81 SW13      29.88S
CROOKSTON      SUNNY     46  43  87 S9        29.89F
FOSSTON        SUNNY     50  45  81 S13       29.91R
DETROIT LAKES  SUNNY     50  45  81 SW7       29.95R
MOORHEAD       SUNNY     46  45  93 S6        29.94S
PARK RAPIDS    CLOUDY    49  48  97 S8        29.94S FOG
MAHNOMEN       FAIR      49  45  87 S13       29.92R
$$
MNZ006-009>011-018-025>026-231600-
   North Central Minnesota

CITY           SKY/WX    TMP DP  RH WIND       PRES   REMARKS
BAUDETTE       PTSUNNY   51  46  83 S12       29.86S
FLAG ISLAND    CLOUDY    50  46  87 S6        29.81S
INTL FALLS     CLOUDY    51  48  89 S8        29.89S
WASKISH        MOSUNNY   52  48  87 CALM      29.89S
BIG FORK       CLOUDY    52  48  87 S10       29.92F
LONGVILLE      CLOUDY    52  48  87 S6        29.94S
GRAND RAPIDS   CLOUDY    50  46  87 S8        29.95R
CRANE LAKE     CLOUDY    46  46 100 S6        29.93F
ORR            CLOUDY    48  46  93 SW6       29.90F
COOK           CLOUDY    48  46  93 S6        29.94S FOG
WALKER         CLOUDY    49  48  97 SW6       29.93S FOG
$$
MNZ012-019>021-037-231600-
   Northeast Minnesota

CITY           SKY/WX    TMP DP  RH WIND       PRES   REMARKS
DULUTH         FOG       48  46  93 SW8       29.96S VSB 1/4
ELY            CLOUDY    46  45  93 SW6       29.94S
HIBBING        CLOUDY    50  47  89 SW3       29.95R FOG
EVELETH        CLOUDY    46  45  93 SW8       29.95S FOG
DULUTH HARBOR  CLOUDY    50  48  93 SW5       29.98S
TWO HARBORS    CLOUDY    50  39  66 CALM      29.96R HAZE
SILVER BAY     CLOUDY    48  46  93 S5        29.96R FOG
GRAND MARAIS     N/A     49  46  90 SW3       29.99F
G MARAIS ARPRT DRIZZLE   43  39  87 S3        29.98S
$$
MNZ029>031-032-039>041-046>048-054>057-064-231600-
   West Central Minnesota

CITY           SKY/WX    TMP DP  RH WIND       PRES   REMARKS
FERGUS FALLS   SUNNY     48  46  93 S5        29.97S
WHEATON        SUNNY     48  43  81 SW5       29.98S
MORRIS         SUNNY     46  46 100 S5        29.96S
ALEXANDRIA     SUNNY     50  48  93 SW8       29.98R
ELBOW LAKE     FAIR      47  46  97 S6        29.97R
WADENA         FOG       46  46 100 S3        29.95S VSB 1/2
GLENWOOD       SUNNY     48  48 100 S6        29.98S
APPLETON       SUNNY     52  48  87 SW5       29.98S
BENSON         SUNNY     48  48 100 SW3       29.99R
ORTONVILLE     SUNNY     50  43  76 W6        29.97S
MADISON        SUNNY     54  48  82 W6        29.99R
WILLMAR        FAIR      52  48  87 SW5       30.00S
$$
MNZ033>034-036-042>043-049>051-058-059-231600-
   Central Minnesota

CITY           SKY/WX    TMP DP  RH WIND       PRES   REMARKS
ST CLOUD       CLOUDY    52  51  97 S8        29.99R FOG
SAUK CENTRE    CLOUDY    47  47 100 CALM      29.98S FOG
PAYNESVILLE    CLOUDY    47  47 100 S3        29.99S FOG
AITKIN         CLOUDY    54  48  82 SW3       29.95R
PINE RIVER     CLOUDY    50  50 100 SW5       29.99R
BRAINERD       CLOUDY    51  50  96 SW8       29.97R
STAPLES        CLOUDY    48  46  93 S5        29.96S FOG
LONG PRAIRIE   CLOUDY    46  46 100 S6        29.98S FOG
LITTLE FALLS   CLOUDY    50  46  87 SW3       29.98R FOG
LITCHFIELD     PTSUNNY   52  52 100 CALM      30.00R
BUFFALO        CLOUDY    53  51  91 SW5       30.01R FOG
MAPLE LAKE     CLOUDY    53  53  99 SW3       30.00S FOG
$$
MNZ037-044-045-052-053-231600-
   East Central Minnesota

CITY           SKY/WX    TMP DP  RH WIND       PRES   REMARKS
PRINCETON      CLOUDY    55  54  94 S5        29.99S FOG
MORA           CLOUDY    50  50 100 SW3       30.00S FOG
CAMBRIDGE      CLOUDY    55  48  76 S3        29.97S HAZE
RUSH CITY      CLOUDY    51  50  97 CALM      30.00R FOG
MOOSE LAKE     FOG       50  48  93 S6        29.96S VSB 1
HINCKLEY       FOG       50  50 100 CALM      29.98F VSB 1/2
CLOQUET        FOG       48  46  93 SW6       29.97S VSB 3/4
MCGREGOR       CLOUDY    50  50 100 SW5       29.97S
$$
MNZ071>073-080-081-089-090-097-098-231600-
   Southwest Minnesota

CITY           SKY/WX    TMP DP  RH WIND       PRES   REMARKS
MONTEVIDEO     SUNNY     54  54 100 CALM      30.00R
GRANITE FALLS  SUNNY     49  49 100 CALM      30.02R
CANBY          SUNNY     55  47  76 SW8       30.00S
MARSHALL       SUNNY     55  45  67 W13       29.99R
REDWOOD FALLS  SUNNY     51  49  92 S7        30.00S
OLIVIA         SUNNY     52  50  93 SW6       29.99S
PIPESTONE      FOG       46  46 100 CALM      30.03R VSB 1/4
WINDOM         FOG       52  50  93 SW8       30.03R VSB 1/2
WORTHINGTON    SUNNY     52  50  93 SW7       30.04S
JACKSON        FOG       52  50  93 SW6       30.04R VSB 3/4
TRACY          SUNNY     56  50  81 SW12      30.01R
SLAYTON        SUNNY     53  50  89 W7        30.03S
$$
MNZ065>067-074>077-082>085-091>093-231600-
   South Central Minnesota

CITY           SKY/WX    TMP DP  RH WIND       PRES   REMARKS
MANKATO        CLOUDY    54  48  82 W7        30.02R
NEW ULM        MOSUNNY   50  50 100 SW3       30.01S
ST JAMES       CLOUDY    52  50  93 SW3       30.02F FOG
FAIRMONT       CLOUDY    52  46  82 W6        30.03S VSB 1/2
GLENCOE        FOG       52  52 100 SW5       30.00S VSB 1/2
FARIBAULT      CLOUDY    52  52 100 S5        30.01F FOG
OWATONNA       CLOUDY    52  48  87 SE7       30.02S FOG
WASECA         CLOUDY    52  46  82 S3        30.03S FOG
ALBERT LEA     DRZL/FOG  50  50 100 S3        30.02F VSB 1
$$
MNZ078>079-086>088-094>096-231600-
   Southeast Minnesota

CITY           SKY/WX    TMP DP  RH WIND       PRES   REMARKS
ROCHESTER      CLOUDY    48  47  96 S9        30.04S FOG
STANTON        CLOUDY    53  50  90 S5        30.00S
DODGE CENTER   CLOUDY    50  48  93 SW10      30.03S FOG
WINONA         RAIN      48  46  93 SE3       30.05S
AUSTIN         CLOUDY    48  48 100 S7        30.03S FOG
PRESTON        CLOUDY    47  46  95 S9        30.05R FOG
$$
ABBREVIATIONS USED IN REMARKS
   TC - TEMPERATURES IN CELSIUS
  WCI - WIND CHILL INDEX
   HX - HEAT INDEX
  VSB - VISIBILITY
$$



USA.gov is the U.S. government's official web portal to all federal, state and local government web resources and services.